RH
65 68 69 60 54 61 68 64 66 65 87 87 86 86 84 72 60 45 40 34 31 28 30 74 80 82 80 78 69 69 76 84 81 98 90 81 72 67 67 72 73 75 73
73 70 65 59 61 69 76 66 68 81 90 98 97 99 88 83 77 57 46 41 34 32 40 66 81 83 84 76 68 70 76 82 87 90 97 99 78 60 56 58 63 64 66
80 78 74 66 68 75 72 63 73 86 92 94 96 99 100 91 79 61 51 46 46 47 74 77 76 86 89 89 86 86 79 81 96 80 77 86 98 95 65 62 63 63 65
78 81 77 71 68 63 62 70 82 88 94 98 100 100 99 100 89 75 62 49 47 41 57 84 75 92 95 98 99 96 92 95 92 91 88 85 80 86 83 69 67 66 68
82 83 77 74 60 57 67 68 81 86 95 100 100 100 100 100 89 74 61 49 70 76 88 88 82 98 96 91 88 96 99 98 90 91 92 86 88 94 98 88 78 73 74
80 82 72 72 58 55 66 67 75 83 94 99 100 100 100 97 89 79 61 61 99 99 97 100 100 97 92 91 89 89 88 98 97 99 98 100 97 89 92 87 82 80 77
82 84 86 71 60 55 61 68 71 75 89 94 99 98 96 100 99 100 94 88 98 99 99 98 100 96 94 92 91 92 90 93 97 98 99 99 100 100 100 98 91 95 87
84 85 84 62 59 56 56 66 66 71 83 93 94 98 96 98 99 98 100 100 100 93 98 99 99 93 91 81 81 87 87 85 89 92 93 95 98 98 100 100 99 97 96
81 83 78 54 56 52 54 61 65 73 79 88 90 96 98 99 98 97 100 100 100 96 90 88 92 85 88 75 74 73 64 62 64 77 80 82 82 79 90 99 98 99 98
77 82 69 52 51 47 52 55 63 64 71 77 76 80 89 92 93 93 90 88 86 85 89 75 73 68 68 63 61 58 51 48 51 55 51 54 54 61 70 81 92 96 99
71 78 70 47 45 45 49 49 52 58 60 68 67 65 63 70 78 76 77 74 70 70 68 61 57 53 54 53 47 48 48 50 54 55 59 62 70 76 73 70 70 75 84
69 77 67 43 44 46 43 46 48 48 48 56 53 55 54 51 49 50 53 52 50 51 49 53 53 55 51 47 45 49 54 57 60 62 63 71 72 68 69 78 85 84 86
61 66 54 50 46 45 43 42 46 44 46 45 47 47 49 50 50 48 47 46 44 44 46 48 48 52 56 56 57 60 64 66 70 72 74 75 78 76 80 79 86 84 85
52 65 58 54 46 44 42 40 43 45 44 45 41 41 44 47 48 48 48 47 48 45 46 48 49 50 61 65 70 69 72 73 75 76 79 80 78 83 87 90 89 88 88
47 61 61 59 50 45 42 41 40 43 42 45 44 43 45 46 45 46 47 47 50 54 56 58 59 60 64 78 79 80 79 78 74 73 78 79 76 88 88 86 86 88 87
46 53 63 60 55 49 43 40 39 41 42 44 43 44 46 48 49 51 53 53 52 53 57 59 59 60 59 74 76 80 81 77 74 77 78 80 80 88 92 92 88 86 84
43 46 56 64 53 47 42 42 36 38 45 44 45 47 50 50 52 54 55 54 56 56 57 60 60 60 59 72 75 81 82 77 73 76 78 80 84 89 87 85 85 83 84
44 47 54 54 50 46 43 40 39 39 44 46 46 48 51 52 53 56 58 59 62 62 60 60 59 59 59 61 78 82 79 77 75 76 76 78 81 82 84 85 83 80 83
45 46 42 44 47 46 43 42 41 40 45 46 45 46 48 50 52 53 54 56 60 63 62 62 61 61 62 74 82 84 81 77 76 77 78 80 79 80 86 87 90 90 86
38 39 37 44 48 46 44 43 42 43 46 42 38 39 44 46 46 48 53 57 62 63 63 63 64 68 66 67 86 88 84 80 81 85 85 81 78 79 85 88 89 94 89
39 36 41 48 45 48 47 46 44 44 34 33 35 40 44 46 47 53 55 56 61 65 64 64 67 70 71 72 90 89 85 83 94 86 84 83 81 84 85 84 83 92 92
43 36 44 45 42 48 47 47 48 36 36 35 40 44 47 51 52 53 53 60 64 67 66 67 69 72 72 78 86 86 84 85 86 84 79 81 83 83 83 86 83 84 86
41 37 45 46 46 49 47 49 41 41 39 39 42 46 51 52 53 54 55 64 66 67 68 73 78 76 77 80 84 82 82 84 86 82 83 83 87 88 91 93 88 89 92
47 38 46 57 56 49 49 44 43 42 42 42 45 48 54 55 55 55 57 60 64 68 72 79 85 82 82 81 78 81 80 81 82 83 82 88 88 91 92 91 92 92 97
45 44 50 55 53 47 50 46 46 46 46 45 48 53 56 58 55 54 57 60 60 65 72 79 85 86 83 82 79 86 86 84 84 85 81 83 90 93 87 89 91 96 97
44 51 51 54 50 50 50 51 50 48 48 56 58 57 59 58 58 57 63 67 70 80 93 92 91 88 84 82 82 86 86 85 85 91 91 97 95 93 91 89 94 96 97
Wind_Speed
6 10 11 14 17 20 24 28 30 33 26 26 24 20 24 26 24 22 22 22 23 21 21 21 26 22 26 28 27 19 18 18 15 10 11 16 19 21 25 27 30 32 34
6 10 15 16 18 21 21 27 29 27 24 23 21 19 23 25 25 22 19 18 19 20 20 21 20 21 25 26 22 20 17 14 10 5 1 3 5 12 18 21 25 31 33
8 7 14 18 20 20 22 26 26 21 21 20 21 20 20 18 18 17 16 16 13 16 16 19 21 19 19 17 14 15 12 12 8 14 8 1 4 3 13 13 17 23 26
6 7 12 16 19 20 22 21 22 22 20 20 17 16 17 15 18 18 16 15 14 16 15 18 17 15 12 8 4 5 6 7 9 10 13 19 19 6 8 9 16 21 24
7 8 11 15 14 16 19 19 19 20 19 18 14 17 17 17 18 16 13 11 10 8 8 13 15 15 12 5 1 5 4 6 11 12 11 12 16 18 8 13 12 21 27
8 9 13 12 12 13 15 17 18 20 17 17 16 15 17 14 18 13 10 6 1 3 4 8 11 9 10 8 5 7 6 7 10 8 12 14 9 7 9 11 11 16 27
8 7 7 10 10 10 13 15 16 19 19 16 16 15 14 12 8 10 6 4 9 9 9 9 9 8 5 5 6 7 7 8 7 6 7 8 7 10 9 12 13 8 19
8 8 9 11 10 9 9 11 14 16 17 16 14 14 12 10 10 8 6 8 12 10 8 5 4 4 2 1 5 4 5 5 5 6 7 7 7 8 9 6 11 4 4
8 9 10 12 11 9 8 9 11 12 13 13 12 14 13 11 9 9 8 10 12 13 11 9 5 4 4 4 3 2 1 2 4 5 7 6 8 8 9 9 8 7 3
7 7 8 11 11 9 8 8 7 8 10 10 12 13 13 12 11 9 11 12 12 11 7 8 7 6 3 1 1 2 3 6 6 6 8 7 9 9 8 8 7 6 7
8 7 8 12 10 9 8 7 6 5 6 7 8 9 10 12 11 10 9 9 8 9 9 6 6 6 4 3 4 5 6 5 5 7 8 9 8 9 10 10 10 8 7
8 7 10 11 11 11 9 8 5 3 2 2 4 5 7 8 8 8 8 7 7 7 7 7 7 6 6 7 8 7 6 6 7 9 10 9 9 10 11 12 11 11 11
9 8 7 10 14 13 12 11 10 7 4 2 1 2 4 4 5 6 5 5 5 5 5 5 6 6 5 5 5 5 5 6 7 8 9 10 10 12 13 13 11 12 13
9 7 7 9 16 16 16 15 13 10 7 5 3 3 2 3 3 3 3 3 3 4 4 4 5 5 3 4 4 5 7 9 8 8 8 9 12 13 13 14 16 17 19
9 7 8 8 17 18 18 17 15 13 10 8 6 4 2 2 2 2 2 2 2 3 3 2 2 2 2 2 4 5 6 8 11 11 10 12 12 10 11 15 17 16 17
9 9 8 8 15 22 23 21 19 17 14 11 9 6 5 4 3 2 1 1 1 1 1 2 1 1 1 2 1 3 5 8 13 13 13 14 14 15 15 14 14 14 16
9 9 9 9 19 26 27 27 24 19 18 15 13 11 9 7 6 5 4 3 2 1 1 0 1 1 1 1 2 3 7 11 14 13 14 16 16 16 15 14 15 16 18
8 8 7 13 20 24 24 24 21 21 20 18 15 13 12 10 8 7 6 4 3 2 2 1 1 1 0 1 2 4 8 9 10 11 13 16 17 15 16 18 20 21 22
7 10 15 16 17 17 22 24 22 22 21 20 18 15 13 11 9 8 7 6 6 5 3 2 1 1 1 1 3 6 10 10 11 12 14 14 16 16 19 21 21 22 23
10 13 15 14 14 17 19 25 26 26 27 25 22 18 17 15 13 10 8 6 5 4 3 2 1 1 3 3 5 7 8 11 15 15 15 14 14 18 20 23 22 21 23
16 15 13 15 17 14 19 26 28 30 31 25 22 20 18 16 12 10 9 7 5 5 4 3 2 2 4 5 6 7 9 11 12 16 19 18 17 20 22 22 21 20 27
17 16 14 18 16 14 20 27 28 31 26 23 22 21 19 16 13 12 10 9 7 6 5 4 4 5 5 5 4 6 6 9 11 15 19 21 21 22 23 20 20 22 21
18 19 17 19 17 16 22 25 34 27 24 24 24 22 19 17 15 14 12 10 9 8 7 6 5 4 4 4 4 6 8 10 12 14 16 19 19 21 19 17 19 19 21
16 23 18 17 20 20 24 31 29 25 25 28 27 25 23 20 17 15 13 12 11 9 8 8 7 5 4 4 4 7 10 11 13 13 15 16 15 14 14 18 19 20 19
19 20 19 19 23 22 25 28 31 26 27 29 28 26 24 21 19 17 15 14 12 11 11 10 8 7 6 5 7 8 10 12 12 14 15 16 17 17 17 18 19 19 19
22 17 21 21 25 23 25 27 30 31 30 27 27 28 26 23 20 18 15 12 10 8 9 8 8 7 6 6 6 8 8 10 11 11 13 13 13 13 14 16 18 18 19
Wind_Direction
288 305 310 325 330 337 337 338 337 334 327 325 319 314 303 301 295 286 286 277 277 284 278 272 261 264 260 248 233 229 230 236 242 252 272 278 278 273 268 267 267 267 268
306 306 319 324 327 320 329 336 336 330 323 322 315 295 296 295 298 294 287 283 277 286 274 268 265 259 261 244 240 224 222 239 241 216 290 322 318 263 266 273 273 272 272
284 297 306 316 325 331 335 332 331 335 335 337 325 310 304 295 293 301 296 294 295 284 275 262 260 254 248 241 223 224 222 236 231 241 237 231 246 323 281 276 281 280 281
268 276 287 311 330 326 328 334 337 340 332 327 317 303 295 287 296 306 304 304 299 293 281 250 253 214 215 213 203 235 240 248 249 268 262 260 267 279 292 280 280 274 271
252 270 284 306 315 327 336 341 343 343 338 326 328 325 304 291 301 302 307 314 306 308 252 234 229 204 184 196 30 3 337 301 278 274 272 279 273 267 266 285 288 277 262
256 261 286 296 305 331 342 344 346 349 349 345 349 348 343 337 327 312 307 322 131 120 153 173 191 200 224 235 250 272 333 288 275 287 289 268 261 261 276 280 288 282 278
265 269 279 288 292 316 340 347 347 352 1 357 359 5 356 4 347 340 328 111 132 116 113 110 107 106 105 145 183 234 249 265 278 289 287 294 321 328 327 308 297 277 282
258 259 259 260 268 286 311 337 352 352 3 11 3 11 21 21 23 22 35 102 129 126 130 135 125 85 107 135 125 149 225 272 279 301 302 300 313 331 343 329 324 295 274
253 251 254 247 254 273 287 307 336 353 9 17 26 22 32 41 38 45 69 92 106 119 121 126 141 146 282 332 15 320 352 323 323 311 308 330 327 334 332 331 359 316 308
260 257 251 252 255 270 284 298 307 347 8 23 38 40 41 52 60 59 53 52 68 82 99 105 121 118 118 272 229 253 1 7 353 332 349 337 349 340 344 326 330 358 325
271 259 249 248 249 259 275 284 296 312 348 16 27 44 53 52 54 57 54 49 51 66 84 73 61 64 65 39 23 19 9 1 347 353 352 357 1 357 348 344 341 344 327
281 268 250 239 241 249 252 252 263 281 353 1 37 49 58 67 69 62 54 52 55 57 61 75 81 83 60 41 32 29 20 14 6 357 1 358 354 351 346 355 0 352 340
285 268 246 233 237 243 240 240 236 233 220 199 178 106 93 88 82 77 68 59 56 61 66 74 77 87 93 73 57 47 37 30 19 11 359 353 343 346 348 352 343 338 326
277 272 245 229 238 240 239 237 237 236 230 219 203 186 136 99 94 85 77 75 68 61 54 52 47 55 80 53 43 30 26 25 18 7 5 358 351 347 347 345 334 332 329
296 274 255 233 232 235 235 236 233 230 223 219 222 227 216 185 167 154 132 100 77 73 78 86 84 81 85 60 26 14 9 6 359 0 1 1 359 354 343 331 327 322 318
285 284 258 225 229 229 232 231 229 225 218 218 220 218 221 225 223 214 207 188 115 94 109 132 120 115 96 63 315 319 344 352 356 358 358 350 351 341 332 324 314 312 311
284 287 273 243 231 232 229 224 223 218 216 216 212 211 215 219 216 213 209 210 201 182 177 146 17 27 40 20 4 352 337 344 350 352 349 344 341 340 338 324 318 313 308
264 276 272 278 263 248 233 227 219 215 215 214 216 214 213 212 209 210 214 213 201 203 199 206 271 303 25 329 354 342 334 339 343 344 343 338 336 332 328 324 317 313 307
243 264 294 299 283 256 231 216 209 212 214 218 220 220 220 224 233 234 224 212 205 209 213 218 225 252 44 62 355 335 336 340 338 334 337 334 327 326 326 324 315 311 308
259 282 297 297 279 264 228 207 208 207 214 218 221 221 221 224 221 221 232 245 242 234 240 218 248 328 322 319 337 336 340 339 336 337 337 334 326 324 323 323 320 313 310
284 293 284 277 279 268 222 210 211 212 223 219 219 220 220 224 229 234 229 220 236 252 256 248 261 303 321 325 342 349 341 334 332 333 330 327 327 325 324 324 320 313 317
277 280 271 269 274 252 215 212 214 227 225 221 219 219 219 222 225 228 228 227 234 246 260 260 278 313 326 329 341 342 334 331 330 321 324 323 322 323 324 325 323 323 325
261 273 258 267 263 241 221 215 231 227 220 214 216 217 215 221 223 224 226 227 231 234 242 247 265 289 319 333 333 333 327 324 322 321 315 317 319 320 322 327 328 328 332
253 263 254 250 255 244 231 233 235 230 217 214 214 213 211 212 217 222 223 227 228 230 240 243 247 264 278 276 310 314 324 324 324 323 319 320 324 330 327 331 336 336 330
267 257 242 245 253 253 242 239 235 227 216 217 216 212 213 212 213 218 221 221 232 233 240 241 243 251 256 287 306 319 325 326 324 322 326 341 348 342 341 335 333 332 331
275 255 252 253 257 255 252 247 236 223 216 206 209 211 211 210 212 213 214 221 229 234 224 237 254 260 260 293 305 313 317 323 325 323 338 334 335 332 332 329 326 327 325